Weather History for Mt. Pocono, PA

Change the Weather History Date:

Thursday, February 20, 2014

  Actual Average Record
Temperature  
Mean Temperature 32 °F 27 °F  
Max Temperature 42 °F 35 °F 59 °F (1939)
Min Temperature 21 °F 19 °F -18 °F (1993)
Degree Days  
Heating Degree Days 33 38  
Month to date heating degree days 905 795  
Since 1 July heating degree days 5083 4826  
Cooling Degree Days 0 0  
Month to date cooling degree days 0 0  
Year to date cooling degree days 0 0  
Moisture  
Dew Point 22 °F    
Average Humidity 57    
Maximum Humidity 81    
Minimum Humidity 33    
Precipitation  
Precipitation 0.01 in 0.09 in 1.52 in (1909)
Month to date precipitation 2.69 1.65  
Year to date precipitation 6.04 4.50  
Sea Level Pressure  
Sea Level Pressure 30.11 in    
Wind  
Wind Speed 8 mph (South)    
Max Wind Speed 24 mph    
Max Gust Speed 33 mph    
Visibility 10 miles    
Events      
T = Trace of Precipitation, MM = Missing Value Source: NWS Daily Summary

Daily Weather History Graph

Daily Weather History Graph

Search for Another Location

Airport:

Trip Planner

Search our weather history database for the weather conditions in past years. The results will help you decide how hot, cold, wet, or windy it might be!

Date:

Astronomy

Feb. 20, 2014 Rise Set
Actual Time 6:49 AM EST 5:41 PM EST
Civil Twilight 6:21 AM EST 6:09 PM EST
Nautical Twilight 5:49 AM EST 6:41 PM EST
Astronomical Twilight 5:17 AM EST 7:13 PM EST
Moon 11:37 PM EST (2/20) 9:27 AM EST (2/20)
Length of Visible Light 11h 48m
Length of Day
10h 52m
Waning Gibbous, 71% of the Moon is Illuminated
Feb 20
Waning Gibbous
Feb 22
Last Quarter
Mar 1
New
Mar 8
First Quarter
Mar 16
Full

Hourly Weather History & Observations

Time (EST) Temp. Windchill Dew Point Humidity Pressure Visibility Wind Dir Wind Speed Gust Speed Precip Events Conditions
12:53 AM 33.1 °F 22.6 °F 21.9 °F 64% 30.06 in 10.0 mi NW 16.1 mph 23.0 mph N/A   Clear
1:53 AM 32.0 °F 22.5 °F 21.9 °F 66% 30.09 in 10.0 mi WNW 12.7 mph - N/A   Clear
2:53 AM 30.0 °F 21.1 °F 21.9 °F 72% 30.12 in 10.0 mi WNW 10.4 mph - N/A   Clear
3:53 AM 30.0 °F 23.2 °F 21.0 °F 69% 30.13 in 10.0 mi WNW 6.9 mph - N/A   Clear
4:53 AM 27.0 °F 20.5 °F 19.9 °F 75% 30.14 in 10.0 mi WNW 5.8 mph - N/A   Clear
5:53 AM 25.0 °F 16.3 °F 19.9 °F 81% 30.18 in 10.0 mi West 8.1 mph - N/A   Clear
6:53 AM 24.1 °F 19.7 °F 19.9 °F 84% 30.17 in 10.0 mi WNW 3.5 mph - N/A   Clear
7:53 AM 24.1 °F 17.0 °F 19.9 °F 84% 30.20 in 10.0 mi WNW 5.8 mph - N/A   Clear
8:53 AM 30.9 °F 25.2 °F 23.0 °F 72% 30.22 in 10.0 mi WSW 5.8 mph - N/A   Clear
9:53 AM 34.0 °F 28.8 °F 24.1 °F 67% 30.23 in 10.0 mi WSW 5.8 mph - N/A   Clear
10:53 AM 39.0 °F 34.8 °F 21.0 °F 49% 30.21 in 10.0 mi South 5.8 mph - N/A   Clear
11:53 AM 42.1 °F 37.7 °F 16.0 °F 35% 30.18 in 10.0 mi South 6.9 mph - N/A   Clear
12:53 PM 41.0 °F 35.2 °F 17.1 °F 38% 30.16 in 10.0 mi SSW 9.2 mph - N/A   Partly Cloudy
1:53 PM 41.0 °F 34.7 °F 17.1 °F 38% 30.13 in 10.0 mi South 10.4 mph - N/A   Mostly Cloudy
2:53 PM 41.0 °F 35.2 °F 19.9 °F 43% 30.13 in 10.0 mi South 9.2 mph - N/A   Overcast
3:53 PM 39.0 °F 32.8 °F 21.9 °F 50% 30.11 in 10.0 mi SE 9.2 mph - N/A   Overcast
4:53 PM 37.0 °F 34.5 °F 26.1 °F 65% 30.12 in 10.0 mi SSE 3.5 mph - 0.01 in   Overcast
5:53 PM 37.0 °F 29.3 °F 25.0 °F 62% 30.08 in 10.0 mi SE 11.5 mph - N/A   Overcast
6:31 PM 37.0 °F 31.0 °F 25.0 °F 62% 30.01 in 10.0 mi SE 8.1 mph - 0.00 in   Overcast
6:53 PM 37.9 °F 33.5 °F 24.1 °F 57% 30.09 in 10.0 mi ESE 5.8 mph - 0.00 in   Overcast
7:53 PM 37.0 °F 30.4 °F 24.1 °F 59% 30.08 in 10.0 mi SE 9.2 mph - N/A   Overcast
8:53 PM 37.0 °F 31.6 °F 24.1 °F 59% 30.06 in 10.0 mi SE 6.9 mph - N/A   Overcast
9:53 PM 36.0 °F 29.6 °F 25.0 °F 64% 30.02 in 10.0 mi ESE 8.1 mph - N/A   Overcast
10:53 PM 36.0 °F 31.1 °F 24.1 °F 62% 30.00 in 10.0 mi SE 5.8 mph - N/A   Mostly Cloudy
11:02 PM 35.1 °F 30.1 °F 25.0 °F 67% 29.95 in 10.0 mi SE 5.8 mph - N/A   Mostly Cloudy
11:53 PM 36.0 °F 32.1 °F 25.0 °F 64% 29.98 in 10.0 mi SE 4.6 mph - N/A   Overcast